Location: Bernadets
(43.3537°N, 0.3167°E)
Time: 17:27:33
(UTC+00:00)

FENGYUN 1C DEB - Visible Passes

Search period start: 11 August 2022 00:00
Search period end: 21 August 2022 00:00
Orbit: 824 x 977 km, 99.2° (Epoch: 10 August)

Date Brightness Start Highest point End Pass type
(mag) Time Alt. Az. Time Alt. Az. Time Alt. Az.
11 Aug ? 20:31:31 10° SSW 20:37:05 40° W 20:42:29 10° NNW visible
12 Aug ? 20:34:27 10° SSW 20:39:56 38° W 20:45:15 10° NNW visible
13 Aug ? 20:37:23 10° SSW 20:42:46 36° W 20:48:01 10° NNW visible
14 Aug ? 20:40:18 10° SSW 20:45:36 34° W 20:50:46 10° NNW visible
15 Aug ? 20:43:14 10° SSW 20:48:27 32° W 20:53:31 10° NW visible
16 Aug ? 20:46:10 10° SSW 20:51:17 31° W 20:56:15 10° NW visible
17 Aug ? 20:49:07 10° SSW 20:54:07 29° W 20:58:59 10° NW visible
18 Aug ? 20:52:04 10° SSW 20:56:57 27° W 21:01:43 10° NW visible
19 Aug ? 20:55:01 10° SSW 20:59:47 26° W 21:04:27 10° NW visible
20 Aug ? 19:15:11 10° SE 19:20:44 50° ENE 19:26:05 10° N visible
20 Aug ? 20:57:59 10° SSW 21:02:37 25° W 21:07:09 10° NW visible
